[[{"header":{"parameterUnit":"m.s-1","parameterCategory":1,"la1":30.2991,"la2":30.254,"lo1":-89.0895,"lo2":-89.0444,"dy":0.0017,"dx":0.0017,"nx":28,"ny":28,"refTime":"2024-05-12T09:00:00:Z","depth":0,"parameterNumber":2,"parameterNumberName":"U-component_of_WINDS"},"data":[0,0,0,0,0,0,0,0,0,0,0,0,0,0,0,0,0,0,0,0,0,0,0,0,0,0,0,0,0,0,0,0,0,0,0,0,0,0,0,0,0,0,0,0,0,0,0,0,0,0,0,0,0,0,0,0,0,0,-3.0156,-3.0157,0,-3.0285,-3.0287,-3.0288,-3.0327,-3.0327,-3.0326,-3.0325,-3.0456,-3.046,-3.0464,0,0,0,0,0,0,0,0,0,0,0,0,0,-2.9941,-2.9945,-3.0155,-3.0157,-3.0159,-3.0285,-3.0287,-3.0288,-3.0327,-3.0327,-3.0326,-3.0325,-3.0455,-3.046,-3.0464,0,0,0,0,0,0,0,0,0,0,0,0,0,-3.0049,-2.9946,-3.0155,-3.0193,-3.0198,-3.0285,-3.0287,-3.0289,-3.0328,-3.0327,-3.0326,-3.0325,-3.0453,-3.0459,-3.0465,-3.0522,0,0,-3.0484,-3.0487,0,0,0,0,0,0,0,0,-3.0043,-3.0057,-3.0186,-3.0191,-3.0196,-3.0289,-3.0259,-3.0367,-3.0328,-3.0278,-3.0325,-3.0324,-3.0401,-3.0412,-3.0438,-3.0528,-3.0534,-3.0484,-3.0488,-3.0491,-3.0493,0,0,0,0,0,0,0,-3.0035,-3.0051,-3.0207,-3.0188,-3.0194,-3.0204,-3.0218,-3.028,-3.0344,-3.0283,-3.0286,-3.0301,-3.0404,-3.0432,-3.0441,-3.0536,-3.0484,-3.049,-3.0493,-3.0496,-3.068,-3.0682,0,0,0,0,0,0,-3.0021,-3.0045,-3.0203,-3.0211,-3.0116,-3.0208,-3.0224,-3.026,-3.0343,-3.0355,-3.0301,-3.0302,-3.0422,-3.0434,-3.0446,-3.0519,-3.0491,-3.0496,-3.05,-3.0679,-3.0681,-3.0682,0,0,0,0,0,0,-3.0017,-3.0035,-3.0197,-3.0129,-3.015,-3.0213,-3.0253,-3.0263,-3.0292,-3.0357,-3.0369,-3.0318,-3.0422,-3.0437,-3.0503,-3.0524,-3.0499,-3.0505,-3.0678,-3.068,-3.0681,-3.0664,0,0,0,0,0,0,-3.001,-3.0033,-3.0056,-3.0129,-3.0154,-3.0253,-3.0254,-3.0267,-3.0302,-3.0304,-3.0376,-3.0387,-3.0422,-3.0494,-3.0509,-3.0532,-3.051,-3.0676,-3.0679,-3.0681,-3.0663,-3.0665,-3.0666,0,0,0,0,0,-3.0002,-3.0045,-3.0056,-3.0075,-3.0183,-3.0254,-3.0268,-3.0308,-3.0304,-3.0327,-3.0369,-3.0385,-3.0519,-3.05,-3.0518,-3.0542,-3.0675,-3.0678,-3.0681,-3.0662,-3.0664,-3.0666,0,0,0,0,0,0,-2.9972,-3.0055,-3.0069,-3.0137,-3.0188,-3.026,-3.029,-3.0309,-3.0362,-3.0362,-3.0408,-3.0424,-3.0487,-3.0521,-3.0499,-3.0602,-3.0598,-3.0604,-3.0577,-3.058,-3.0582,-3.0572,-3.0515,0,0,0,0,0,-2.9973,-3.0024,-3.0094,-3.0147,-3.0172,-3.0227,-3.0259,-3.0285,-3.034,-3.0362,-3.0409,-3.0461,-3.0515,-3.055,-3.0603,-3.0668,-3.0684,-3.0694,-3.0695,-3.0697,-3.0701,-3.0738,-3.0743,-3.0691,-3.0691,-3.0691,0,0,-2.9976,-3.0028,-3.0057,-3.0142,-3.0185,-3.0236,-3.0245,-3.0298,-3.0337,-3.037,-3.0435,-3.0472,-3.0533,-3.0599,-3.063,-3.063,-3.072,-3.07,-3.0701,-3.0705,-3.0742,-3.0747,-3.0751,-3.0693,-3.0693,-3.0692,0,0,-3.0007,-3.0051,-3.01,-3.0143,-3.0208,-3.0245,-3.0256,-3.0327,-3.0352,-3.0419,-3.0445,-3.0491,-3.0583,-3.0626,-3.066,-3.0708,-3.0724,-3.0724,-3.0733,-3.0769,-3.0773,-3.0777,-3.0793,-3.0799,-3.0729,-3.0729,-3.0729,0,-3.0002,-3.008,-3.0123,-3.0176,-3.0212,-3.0246,-3.0296,-3.0335,-3.0414,-3.0438,-3.0437,-3.0554,-3.0597,-3.0673,-3.0685,-3.0712,-3.0726,-3.0715,-3.0769,-3.0773,-3.0777,-3.0794,-3.08,-3.0728,-3.0728,-3.0728,-3.0728,0,-3.0071,-3.0125,-3.0157,-3.0233,-3.0273,-3.0324,-3.0374,-3.041,-3.0433,-3.047,-3.0537,-3.0591,-3.0655,-3.0676,-3.0699,-3.0756,-3.0753,-3.076,-3.0756,-3.0781,-3.0797,-3.0804,-3.0727,-3.0728,-3.0728,-3.0728,0,0,-3.0085,-3.0185,-3.0196,-3.0231,-3.0305,-3.0348,-3.0401,-3.0465,-3.0494,-3.0548,-3.0593,-3.0671,-3.0677,-3.0716,-3.0744,-3.0775,-3.081,-3.0778,-3.078,-3.0781,-3.0875,-3.0869,-3.0876,-3.0821,-3.0823,-3.0824,-3.087,0,-3.0126,-3.0221,-3.0261,-3.0338,-3.0389,-3.0421,-3.0467,-3.0518,-3.0553,-3.0601,-3.0641,-3.0695,-3.07,-3.0723,-3.0756,-3.0798,-3.0829,-3.0796,-3.0863,-3.0865,-3.0846,-3.0885,-3.0879,-3.0919,-3.0877,-3.0878,-3.0879,0,-3.0185,-3.024,-3.0322,-3.039,-3.0413,-3.0454,-3.0516,-3.0561,-3.0619,-3.0643,-3.0686,-3.0713,-3.0769,-3.0762,-3.084,-3.0817,-3.0847,-3.0872,-3.0875,-3.0882,-3.0873,-3.0892,-3.0934,-3.0939,-3.0889,-3.0888,-3.0888,0,-3.0187,-3.0281,-3.0342,-3.0371,-3.0453,-3.0481,-3.0516,-3.0573,-3.0609,-3.0664,-3.0688,-3.0748,-3.078,-3.0826,-3.0868,-3.0859,-3.0942,-3.0938,-3.0963,-3.0962,-3.0978,-3.0976,-3.1024,-3.0998,-3.0998,-3.0998,-3.0998,0,-3.0228,-3.0277,-3.0344,-3.0382,-3.0437,-3.0483,-3.0537,-3.0575,-3.0625,-3.0671,-3.0703,-3.0744,-3.0798,-3.0846,-3.088,-3.0939,-3.0953,-3.0974,-3.0982,-3.0971,-3.0968,-3.099,-3.0988,-3.1,-3.0999,-3.0999,-3.0999,0,-3.0239,-3.0287,-3.0355,-3.0427,-3.0447,-3.0484,-3.0546,-3.0584,-3.0621,-3.0678,-3.0694,-3.0753,-3.0811,-3.0858,-3.0935,-3.0957,-3.102,-3.1029,-3.1,-3.1004,-3.1025,-3.1023,-3.1089,-3.11,-3.1067,-3.1067,-3.1067,0,-3.0262,-3.03,-3.0376,-3.0409,-3.0444,-3.0497,-3.0534,-3.058,-3.0618,-3.0687,-3.0716,-3.0777,-3.0829,-3.0921,-3.097,-3.1029,-3.104,-3.1059,-3.1049,-3.1036,-3.104,-3.1037,-3.1041,-3.106,-3.106,-3.106,-3.106,0,-3.0297,-3.0318,-3.0371,-3.0431,-3.0475,-3.0525,-3.0576,-3.06,-3.0656,-3.0697,-3.0757,-3.0797,-3.0876,-3.0936,-3.1,-3.1036,-3.1058,-3.1063,-3.1072,-3.106,-3.1042,-3.1052,-3.1002,-3.1061,-3.1061,-3.1061,-3.1061,-3.1061,-3.0314,-3.035,-3.0409,-3.0466,-3.051,-3.0556,-3.0595,-3.0638,-3.0689,-3.0757,-3.0781,-3.0844,-3.0901,-3.099,-3.1026,-3.1075,-3.1077,-3.109,-3.1093,-3.1095,-3.1093,-3.1034,-3.1087,-3.1087,-3.1087,-3.1087,-3.1088,0,-3.0351,-3.039,-3.0443,-3.0513,-3.0558,-3.0574,-3.0631,-3.0668,-3.0722,-3.0774,-3.0824,-3.0894,-3.0953,-3.1007,-3.1068,-3.1097,-3.1108,-3.1112,-3.111,-3.1118,-3.1089,-3.1075,-3.1102,-3.1102,-3.1102,-3.1102,-3.1102,-3.1102,-3.0375,-3.0436,-3.0464,-3.0547,-3.0587,-3.0648,-3.0679,-3.0722,-3.0764,-3.0841,-3.089,-3.0925,-3.0978,-3.1043,-3.1097,-3.1112,-3.1133,-3.1133,-3.115,-3.1122,-3.112,-3.1118,-3.1105,-3.1138,-3.1138,-3.1175,-3.1175,-3.1176]},{"header":{"parameterUnit":"m.s-1","parameterCategory":1,"la1":30.2991,"la2":30.254,"lo1":-89.0895,"lo2":-89.0444,"dy":0.0017,"dx":0.0017,"nx":28,"ny":28,"refTime":"2024-05-12T09:00:00:Z","depth":0,"parameterNumber":3,"parameterNumberName":"V-component_of_WINDS"},"data":[0,0,0,0,0,0,0,0,0,0,0,0,0,0,0,0,0,0,0,0,0,0,0,0,0,0,0,0,0,0,0,0,0,0,0,0,0,0,0,0,0,0,0,0,0,0,0,0,0,0,0,0,0,0,0,0,0,0,7.9737,7.9738,0,7.9817,7.9818,7.9819,7.9745,7.9742,7.9739,7.9737,7.9813,7.9818,7.9823,0,0,0,0,0,0,0,0,0,0,0,0,0,7.9515,7.9519,7.9737,7.9738,7.9739,7.9817,7.9818,7.9819,7.9746,7.9742,7.9739,7.9735,7.9812,7.9817,7.9823,0,0,0,0,0,0,0,0,0,0,0,0,0,7.9604,7.9521,7.9737,7.9712,7.971,7.9816,7.9818,7.9819,7.9747,7.9742,7.9738,7.9734,7.981,7.9817,7.9824,7.9957,0,0,7.9846,7.9849,0,0,0,0,0,0,0,0,7.9599,7.9613,7.9714,7.9714,7.9712,7.9767,7.9767,7.9865,7.9748,7.9733,7.9737,7.9731,7.9801,7.9809,7.9833,7.996,7.9964,7.9847,7.9851,7.9854,7.9856,0,0,0,0,0,0,0,7.9593,7.9609,7.9768,7.9716,7.9715,7.9695,7.9703,7.9786,7.979,7.9734,7.9729,7.9739,7.98,7.9826,7.9834,7.9965,7.9846,7.9853,7.9857,7.986,8.0203,8.0208,0,0,0,0,0,0,7.959,7.9604,7.9766,7.9771,7.9644,7.9702,7.9711,7.9754,7.9789,7.9791,7.9743,7.9736,7.9816,7.9826,7.9837,7.9993,7.9854,7.9861,7.9865,8.0198,8.0204,8.0209,0,0,0,0,0,0,7.9586,7.9606,7.9762,7.9686,7.9704,7.9711,7.9759,7.9757,7.9784,7.9797,7.9796,7.977,7.9813,7.9827,7.9927,7.9995,7.9864,7.987,8.0193,8.02,8.0207,8.0308,0,0,0,0,0,0,7.958,7.9604,7.9656,7.9688,7.9709,7.9854,7.9763,7.9762,7.9798,7.9789,7.9822,7.9823,7.9811,7.9917,7.9935,8.0002,7.9876,8.0186,8.0196,8.0204,8.0299,8.0318,8.0334,0,0,0,0,0,7.9572,7.9681,7.966,7.9679,7.9774,7.9858,7.987,7.9855,7.9803,7.9855,7.9862,7.9822,7.9985,7.9928,7.9947,8.0018,8.0182,8.0193,8.0204,8.0291,8.0314,8.0334,0,0,0,0,0,0,7.9656,7.9685,7.9661,7.9784,7.9819,7.9845,7.9909,7.988,7.993,7.9919,7.9897,7.9905,8.0011,8.0025,7.9961,8.0148,8.0075,8.009,8.0135,8.0157,8.0175,8.0168,7.9882,0,0,0,0,0,7.9689,7.9756,7.9777,7.9883,7.9902,7.9903,7.9939,7.9925,7.996,7.9974,7.9989,8.0022,8.0081,8.012,8.0175,8.0301,8.0306,8.0359,8.0377,8.0391,8.0404,8.047,8.0493,8.0245,8.0245,8.0244,0,0,7.9757,7.9781,7.9825,7.9901,7.9926,7.9994,7.9916,7.9992,8.0041,7.9984,8.008,8.0093,8.0129,8.0243,8.0293,8.0257,8.0474,8.0405,8.0417,8.0421,8.0483,8.0507,8.0528,8.0252,8.0251,8.025,0,0,7.9916,7.9942,8.0032,8.006,8.01,8.01,8.0122,8.0153,8.0159,8.0256,8.0214,8.0272,8.0374,8.0401,8.0428,8.0597,8.0561,8.0616,8.0708,8.0772,8.0792,8.0809,8.0867,8.0888,8.0629,8.0629,8.0629,0,7.9995,8.0098,8.0082,8.0161,8.0194,8.0148,8.0238,8.0265,8.0321,8.0344,8.0303,8.043,8.0451,8.0569,8.0611,8.0635,8.0657,8.0611,8.0791,8.0808,8.0823,8.0878,8.0901,8.0635,8.0634,8.0634,8.0633,0,8.0192,8.0264,8.0332,8.0388,8.0429,8.0513,8.0509,8.0552,8.0534,8.0538,8.0635,8.0659,8.0717,8.0745,8.0728,8.0861,8.0837,8.0794,8.072,8.0853,8.0905,8.0926,8.0644,8.0642,8.064,8.0638,0,0,8.0405,8.0452,8.0477,8.0501,8.0542,8.0596,8.0677,8.0736,8.0772,8.0812,8.0878,8.0966,8.0926,8.0957,8.0942,8.0999,8.1129,8.0949,8.0949,8.098,8.1274,8.1305,8.133,8.1106,8.111,8.1113,8.1271,0,8.0563,8.0706,8.0694,8.0828,8.0893,8.085,8.092,8.0952,8.0957,8.1011,8.1016,8.1078,8.1022,8.104,8.1095,8.1102,8.1187,8.109,8.1165,8.1168,8.1155,8.1357,8.139,8.1538,8.1291,8.1294,8.1297,0,8.0768,8.0816,8.0957,8.0988,8.1014,8.1078,8.1129,8.1183,8.1217,8.1217,8.1252,8.1227,8.1306,8.1232,8.134,8.1274,8.1304,8.1312,8.1317,8.1322,8.1239,8.1365,8.1584,8.1606,8.1329,8.1326,8.1324,0,8.0907,8.1007,8.1104,8.1126,8.1165,8.121,8.1227,8.1258,8.1293,8.1338,8.136,8.1413,8.1442,8.1483,8.1472,8.142,8.1582,8.1507,8.1582,8.1582,8.1616,8.1614,8.1841,8.1639,8.1639,8.1638,8.1638,0,8.1084,8.1172,8.1167,8.1226,8.1322,8.1307,8.1402,8.1413,8.1441,8.15,8.1465,8.1521,8.1505,8.156,8.1552,8.1642,8.1655,8.1655,8.1652,8.1658,8.1657,8.1675,8.1664,8.1644,8.1643,8.1642,8.1641,0,8.1255,8.1256,8.1358,8.1386,8.1395,8.1464,8.1487,8.1542,8.1545,8.162,8.1637,8.1641,8.1703,8.1698,8.1768,8.1762,8.1872,8.1857,8.1861,8.1857,8.1931,8.1924,8.2176,8.2208,8.1987,8.1989,8.1991,0,8.1368,8.1434,8.147,8.1508,8.1529,8.159,8.1627,8.1614,8.1652,8.1696,8.1745,8.1805,8.1852,8.1954,8.1961,8.2014,8.1999,8.2084,8.2007,8.201,8.1998,8.1994,8.1999,8.2099,8.2101,8.2103,8.2105,0,8.1567,8.1564,8.1618,8.1673,8.1718,8.176,8.1798,8.183,8.1821,8.1866,8.193,8.1967,8.2038,8.2097,8.2147,8.2163,8.2132,8.213,8.2149,8.2155,8.2153,8.2153,8.1901,8.2123,8.2122,8.212,8.2119,8.2118,8.1711,8.1767,8.1801,8.1862,8.189,8.1926,8.1979,8.1988,8.2042,8.2101,8.2089,8.2161,8.2192,8.2256,8.2277,8.2331,8.23,8.2329,8.2336,8.2343,8.2351,8.2147,8.2341,8.234,8.234,8.2339,8.2339,0,8.1906,8.1926,8.1983,8.2038,8.2085,8.2054,8.2094,8.2136,8.22,8.2232,8.2279,8.2352,8.2409,8.2422,8.2475,8.2516,8.2503,8.2531,8.2527,8.253,8.2377,8.2353,8.254,8.254,8.254,8.254,8.254,8.254,8.2014,8.2107,8.2108,8.2213,8.2232,8.2303,8.2328,8.2361,8.2386,8.247,8.2517,8.2526,8.2549,8.2604,8.2654,8.2656,8.2677,8.271,8.2706,8.2562,8.2541,8.2522,8.25,8.2715,8.2715,8.2855,8.2856,8.2857]}]]